NIMIQ 5

Last updated on Sat Mar 14 2026 00:02:53 GMT+0000 (Coordinated Universal Time)

1 35873U 09050A 26072.66351015 -.00000257 00000+0 00000+0 0 9997 2 35873 0.0286 253.2164 0002687 107.3749 336.8590 1.00272017 60382
UTC large
Height (km)
Speed (km/s)
/
Latitude / Longitude
Inclination (degrees)
Orbital Period (minutes)
Azimuth
Elevation
Range (km)
Doppler Factor

Next 0 passes for location: London (51.5072 / 0.1276)

Sorry there are no passes over London.